Location: Newark
(47.3150°N, 5.1150°E)
Time: 00:25:10
(UTC+00:00)

O/OREOS (USA 219) - Pass Details

Date: 21 December 2019
Orbit: 621 x 646 km, 72.0° (Epoch: 22 May)

Event Time Altitude Azimuth Distance (km) Brightness Sun altitude
Exits shadow 06:26:28 10° 275° (W) 2,023 ? -9.2°
Maximum altitude 06:27:18 11° 264° (W) 1,990 ? -9.1°
Drops below altitude 10° 06:28:14 10° 252° (WSW) 2,025 ? -8.9°
Sets 06:32:27 0° 214° (SSW) 2,917 ? -8.3°
